SCP
1 1 1 1 1 1 1 0 0 0 0 0 0 0 1 1 0 1 1 1 2 2 1 1 1 1 1 1 1 0 0 0 0 0 0 0 0 0 0 0 0 0 0 0 0 0 0 0 0
1 1 1 1 1 1 1 0 0 0 0 0 0 0 1 1 1 1 1 2 2 2 1 1 2 1 1 1 1 1 0 0 0 0 0 0 0 0 0 0 0 0 0 0 0 0 0 0 0
1 1 1 1 1 1 0 0 0 0 0 0 0 0 1 1 1 1 1 2 2 2 2 2 2 2 1 1 1 1 1 0 0 0 0 0 0 0 0 0 0 0 0 0 0 0 0 0 0
0 0 1 1 1 0 0 0 0 0 0 0 0 1 1 1 1 1 1 2 3 3 3 2 2 2 1 1 1 1 1 1 0 0 0 0 0 0 0 0 0 0 0 0 0 0 0 0 0
0 0 1 0 0 0 0 0 0 0 0 0 1 1 1 1 1 1 2 2 3 4 3 2 2 2 1 1 1 1 1 1 1 1 0 0 0 0 0 0 0 0 0 0 0 0 0 0 0
0 0 0 0 0 0 0 0 1 1 0 0 1 2 2 2 1 1 2 3 4 4 3 2 2 2 1 1 1 1 1 1 1 1 1 0 0 0 0 0 0 0 0 0 0 0 0 0 0
0 0 0 0 0 0 0 0 1 1 0 0 1 2 2 2 2 2 2 3 3 3 3 2 2 2 1 1 1 1 1 1 1 1 1 1 1 0 0 0 0 0 0 0 0 0 0 0 0
0 0 0 0 0 0 0 0 0 1 1 1 1 2 3 2 2 2 3 3 3 3 3 3 2 2 2 1 1 1 1 1 1 1 1 1 1 1 0 0 0 0 0 0 0 0 0 0 0
0 0 0 0 0 0 0 0 0 0 1 1 2 3 3 3 3 3 3 4 4 4 4 3 3 2 2 2 2 2 2 1 1 1 1 1 1 1 1 1 1 0 0 0 0 0 0 0 0
0 0 0 0 0 0 0 0 1 1 1 2 3 4 4 4 4 4 4 4 5 5 4 4 4 4 3 3 2 2 2 2 2 2 1 1 1 1 1 1 1 0 0 0 0 0 0 0 0
0 0 0 0 0 0 0 1 1 1 1 2 3 4 4 4 4 4 3 4 5 5 5 5 5 5 4 3 3 3 3 2 2 2 1 1 1 1 1 1 1 1 0 0 0 0 0 0 0
0 0 0 0 0 0 0 1 1 1 1 2 4 5 5 5 4 4 4 4 5 5 5 6 7 7 6 4 4 3 3 2 2 1 1 1 1 1 1 1 1 1 1 1 1 0 0 1 1
0 0 0 0 0 0 0 0 1 1 1 2 4 5 5 5 6 5 4 5 5 6 6 7 9 8 6 5 4 4 3 2 1 1 1 1 1 1 1 1 1 1 1 1 1 0 0 1 1
0 0 0 0 0 0 0 0 1 2 1 2 4 4 5 5 6 5 5 6 7 7 8 9 9 8 6 5 5 4 3 2 2 1 1 1 1 1 1 1 1 1 1 1 1 0 0 0 0
0 0 0 0 0 0 0 1 2 2 2 2 4 4 5 6 6 6 7 8 9 9 10 9 8 7 6 5 5 4 3 2 2 2 2 2 2 1 1 1 1 0 0 0 1 1 1 1 0
0 0 0 0 0 0 0 1 2 3 3 3 4 4 5 7 7 7 8 9 10 11 11 9 8 7 6 5 5 4 4 3 2 3 2 2 2 1 1 1 1 1 1 0 1 1 1 1 1
0 0 0 0 0 0 0 1 2 3 3 3 4 4 5 7 8 8 8 9 10 10 10 9 7 6 5 4 4 5 4 4 3 3 3 2 2 1 1 1 1 1 1 1 1 1 1 1 1
0 0 0 0 0 0 0 1 3 3 2 3 4 4 5 7 8 8 8 9 9 9 9 8 7 6 5 4 4 4 4 4 3 3 3 2 2 2 1 1 1 1 1 1 1 1 1 1 1
0 0 0 0 0 0 0 1 2 2 2 2 3 5 6 7 8 8 9 9 9 8 7 7 7 6 5 4 4 4 4 4 4 3 3 3 2 2 1 1 1 1 1 1 1 1 1 1 1
0 0 0 0 0 0 0 1 2 2 2 2 3 4 5 6 7 8 9 10 9 8 7 7 7 6 5 4 4 4 4 4 4 3 3 3 2 1 1 1 1 1 1 1 1 1 0 0 0
0 0 0 0 0 0 0 1 2 2 2 2 3 3 4 5 6 7 8 9 9 8 7 7 6 5 4 4 4 4 4 4 4 4 4 3 2 2 1 1 1 1 1 1 1 1 0 0 0
0 0 0 0 0 0 0 1 2 2 2 2 2 2 3 4 5 6 7 8 8 7 7 6 6 5 4 3 3 3 3 4 4 4 4 4 3 2 2 1 1 1 2 1 1 1 0 0 0
0 0 0 0 0 0 0 1 1 2 2 2 2 2 2 4 5 5 7 7 7 6 7 8 7 6 5 4 3 2 3 3 4 4 5 4 3 3 2 2 2 2 2 1 1 1 1 1 1
0 0 0 0 0 0 0 1 1 1 1 2 2 2 2 4 5 6 7 7 6 6 7 9 9 8 6 4 3 3 3 3 3 4 4 4 4 3 3 2 2 2 2 1 1 1 1 1 1
0 0 0 0 0 0 0 0 0 1 1 2 2 2 3 4 5 6 8 7 6 6 8 9 10 9 6 4 3 2 2 3 3 4 4 4 3 3 3 2 3 2 2 1 1 1 1 1 1
0 0 0 0 0 0 0 0 0 1 2 3 3 3 3 3 5 6 7 6 6 6 8 9 9 7 5 4 3 2 2 3 3 3 3 3 3 3 2 3 3 2 2 1 1 1 2 2 2
0 0 0 0 0 0 0 1 1 1 2 3 4 3 3 3 4 5 5 5 5 6 7 8 8 6 4 3 3 2 3 3 3 3 3 2 2 2 2 3 3 2 1 1 1 1 2 2 2
0 0 0 0 0 0 0 1 1 1 3 4 4 3 3 3 3 4 4 5 5 5 5 6 6 5 4 3 3 3 3 3 3 3 2 2 2 2 2 2 2 2 2 1 2 2 2 2 3
0 0 0 0 0 0 0 1 1 2 4 5 4 3 3 3 3 3 4 5 5 5 5 6 6 4 3 3 3 3 3 3 3 2 2 2 2 2 2 2 2 2 2 2 2 2 2 2 3
0 0 0 0 0 0 0 1 1 3 5 6 5 4 3 3 3 3 4 5 5 5 5 6 5 4 3 3 3 3 3 3 2 2 2 2 2 2 2 2 2 2 2 2 3 3 2 2 2
Wind_Speed
11 13 11 8 3 4 5 3 9 10 12 10 8 8 13 13 10 8 10 18 23 21 18 18 16 15 15 15 15 14 14 14 13 13 12 12 12 12 13 13 13 13 14 14 14 14 14 13 13
11 15 11 5 4 3 0 6 10 11 10 7 7 9 13 13 12 11 13 19 23 21 18 17 18 16 15 15 15 15 14 14 13 13 12 12 12 12 13 13 13 14 14 14 14 14 14 13 12
14 18 8 5 7 4 2 6 9 9 8 6 7 9 11 9 10 10 15 19 21 19 17 18 18 17 16 15 15 15 14 14 13 13 12 12 12 13 13 13 13 14 14 14 14 13 13 12 11
10 9 6 6 8 5 3 6 6 7 6 5 7 8 11 8 8 13 17 19 21 19 18 18 18 17 16 16 15 14 14 14 13 13 12 13 13 13 13 13 13 13 14 13 13 12 12 11 9
11 8 7 8 10 5 3 5 4 4 5 5 7 10 11 8 12 16 16 18 19 19 18 18 19 18 16 16 15 14 14 14 13 13 13 13 13 12 13 13 13 13 13 13 12 11 10 9 7
9 8 8 7 8 2 3 3 3 4 5 5 5 10 10 9 11 14 16 16 18 19 19 17 18 18 16 16 15 15 14 14 13 13 13 13 13 12 13 13 13 12 12 11 11 10 9 8 6
11 10 12 11 8 1 2 3 3 3 3 3 4 9 10 10 12 13 15 15 17 19 18 16 15 15 16 16 15 15 14 14 13 13 13 13 13 13 12 12 12 12 11 10 10 9 8 7 5
11 10 14 10 7 1 3 2 3 3 3 3 3 8 10 12 14 15 15 14 16 17 17 15 15 14 13 13 15 15 15 14 14 13 13 13 13 13 13 12 11 11 10 9 8 8 7 6 4
13 11 11 9 5 2 3 1 2 4 4 4 7 9 15 17 16 16 14 14 14 16 15 16 16 14 13 13 14 14 14 13 13 12 13 12 9 10 9 12 11 10 9 8 7 6 6 5 5
11 10 11 9 5 2 1 0 2 2 5 5 8 11 15 16 16 16 15 15 15 15 15 14 15 14 13 11 10 9 9 9 8 7 9 6 4 6 9 12 11 10 9 7 6 6 6 5 4
13 14 12 10 6 4 4 3 2 1 2 4 8 13 16 16 15 15 14 14 14 14 13 14 14 12 11 9 9 6 5 6 7 8 7 4 4 5 7 5 6 6 7 5 5 5 4 3 2
15 14 12 10 8 6 6 6 2 1 2 6 11 15 16 16 15 14 14 13 13 12 12 13 13 10 8 9 7 6 6 6 5 6 6 5 3 4 4 3 4 4 2 2 2 1 1 2 2
14 14 13 12 10 9 9 7 3 2 1 7 11 14 15 14 13 11 10 11 12 11 11 12 13 10 7 7 6 7 6 6 6 5 4 5 4 3 4 2 2 2 2 2 1 1 2 1 0
12 13 13 12 12 10 10 8 4 1 3 5 10 11 11 12 13 12 10 10 11 11 10 11 12 10 8 6 3 4 6 4 6 5 5 5 4 4 4 3 2 2 2 2 1 2 2 0 0
13 14 14 13 12 12 10 7 3 2 6 5 8 10 10 10 11 12 12 11 11 10 10 10 11 10 9 7 5 5 5 6 5 5 6 5 5 5 4 4 3 2 2 2 1 2 2 2 2
14 15 15 13 13 11 10 7 3 6 8 6 6 9 10 9 10 11 11 10 10 10 10 10 11 12 9 7 5 3 4 5 5 5 5 5 5 5 4 3 3 3 3 2 2 1 1 1 1
16 15 14 10 11 9 8 5 4 8 8 6 6 8 10 10 10 10 11 11 10 10 9 10 9 11 10 8 5 3 3 4 4 5 5 5 5 6 3 3 3 3 2 2 2 2 1 1 1
12 10 9 11 9 8 8 6 5 6 6 5 7 7 10 10 10 11 11 11 10 10 9 10 9 10 9 7 5 3 4 4 4 5 5 6 5 5 3 3 4 3 2 2 1 2 1 1 1
15 13 10 10 6 7 8 7 6 6 5 5 5 6 8 9 10 11 11 11 11 10 10 10 10 10 9 7 7 6 5 5 4 5 7 7 5 5 3 3 3 2 2 2 3 2 2 2 1
15 14 13 8 6 8 9 9 7 3 5 4 4 6 7 10 10 11 11 11 11 11 10 10 9 11 11 8 6 6 6 5 4 4 6 7 6 5 5 4 4 3 2 2 2 1 1 2 2
14 14 13 11 10 10 10 10 7 3 3 3 5 7 8 10 11 12 12 11 11 11 11 10 10 10 10 9 6 6 5 4 4 5 5 6 6 5 3 5 3 3 3 3 3 2 2 1 1
13 12 13 13 11 9 10 8 4 4 3 5 5 7 9 9 10 11 12 11 10 10 10 9 9 9 10 10 9 10 8 7 6 5 5 6 6 6 5 5 4 3 2 4 4 4 2 2 2
13 12 11 12 11 11 10 9 2 3 3 5 5 5 7 9 10 10 11 10 10 10 10 9 9 9 10 10 10 10 8 6 5 6 7 6 5 5 6 5 4 3 2 3 2 2 1 1 2
12 12 12 10 9 11 9 10 6 5 8 8 7 8 7 8 9 9 10 10 10 10 10 10 10 10 10 10 10 10 9 8 8 8 8 6 5 4 6 5 4 4 3 3 3 2 2 1 2
13 11 9 9 8 7 8 8 5 5 8 8 7 8 9 9 9 9 9 10 10 10 10 10 11 10 11 11 10 10 9 9 9 8 8 7 6 5 6 6 4 4 3 4 3 3 2 2 2
12 13 11 10 6 4 4 7 5 3 7 8 8 9 8 9 9 9 9 9 10 11 11 11 11 11 11 11 9 9 9 7 6 7 7 6 5 5 6 6 5 4 4 5 4 3 4 3 3
14 12 13 12 12 8 6 5 6 4 5 7 8 9 8 9 9 9 9 10 10 10 10 11 11 10 10 10 9 8 8 7 7 7 6 5 4 6 7 7 6 6 5 4 4 3 3 3 3
14 12 8 8 8 10 6 3 2 1 2 4 6 7 8 9 9 9 8 9 10 9 9 10 10 10 9 9 9 8 8 7 6 6 7 6 5 5 7 7 6 6 5 5 4 4 3 3 3
13 13 11 8 8 8 7 1 1 3 3 4 5 7 7 8 9 9 8 8 9 9 10 9 9 8 8 9 8 8 7 7 7 6 6 6 5 5 6 6 6 6 6 6 5 5 4 5 5
10 11 10 8 9 9 8 3 3 4 3 3 5 8 7 7 8 8 7 7 8 9 9 9 9 9 8 8 8 7 7 7 7 7 6 6 6 6 6 6 6 7 7 6 6 6 6 6 6
Wind_Direction
232 241 234 245 260 259 271 74 72 67 66 62 53 52 65 59 69 101 130 127 120 123 128 131 130 129 127 127 127 127 125 123 121 118 115 110 106 104 102 100 99 98 98 97 96 95 94 93 93
258 256 241 242 251 265 289 78 76 72 74 77 73 70 72 68 79 106 119 121 122 127 135 132 132 131 130 129 128 128 128 126 124 122 119 115 111 107 105 104 102 101 100 99 97 96 94 94 95
262 265 264 238 247 262 75 79 85 90 87 79 74 69 68 74 86 109 123 128 126 129 128 130 136 134 133 132 131 131 131 129 128 126 124 121 116 110 107 106 104 103 101 100 98 97 96 95 96
257 251 246 261 275 275 112 92 92 101 97 85 87 82 77 64 95 118 131 132 126 129 129 135 138 136 135 134 134 133 133 131 129 128 125 121 117 113 111 107 105 104 102 101 99 98 98 97 98
246 256 251 270 279 278 81 94 101 103 99 86 97 98 89 86 107 123 137 134 133 132 131 138 140 139 138 138 137 137 135 134 131 127 124 121 118 116 114 109 107 105 104 102 101 99 99 100 99
256 255 261 270 276 261 82 93 98 95 100 96 111 112 103 115 120 135 141 136 137 133 133 137 142 142 142 142 141 140 138 136 133 129 126 123 122 119 117 115 112 109 108 106 103 102 102 102 101
259 275 275 273 272 201 98 95 102 97 90 103 96 107 112 133 133 140 138 139 137 133 133 143 146 145 146 145 145 143 140 137 136 133 131 128 128 126 123 119 116 114 113 111 109 107 108 111 114
259 281 287 283 271 171 122 106 126 112 123 99 84 109 134 143 144 145 143 141 139 136 141 148 149 148 150 149 149 147 144 141 140 140 139 136 135 134 131 127 122 120 119 118 117 118 122 128 143
253 261 277 282 278 126 116 114 131 133 116 84 59 91 133 146 149 148 147 149 148 143 146 153 149 153 156 153 150 151 149 146 146 148 150 151 153 144 148 126 131 129 128 129 132 137 144 152 173
240 253 268 287 321 8 71 242 266 167 123 103 93 109 132 149 152 156 160 160 155 150 155 156 153 157 161 154 147 155 158 154 164 157 164 177 161 143 131 134 140 142 144 149 161 167 175 190 182
241 255 274 294 310 327 306 268 245 311 94 139 152 150 149 158 159 166 168 166 158 156 157 156 151 157 160 141 154 162 159 160 172 162 172 171 142 133 130 144 147 158 165 176 168 192 210 186 135
245 262 272 284 299 294 286 287 293 314 156 159 159 156 160 166 168 173 171 168 159 163 157 153 146 156 153 146 159 164 156 165 165 159 175 159 149 142 144 146 160 166 168 165 177 198 119 99 138
246 258 267 271 271 273 274 272 270 270 153 134 140 153 162 167 169 170 171 167 158 162 160 148 148 153 147 145 165 162 154 169 155 155 178 154 152 149 130 120 138 163 150 162 201 119 89 78 166
264 259 265 268 269 266 264 261 247 273 262 156 150 154 163 169 168 166 169 168 159 166 162 149 150 149 146 151 174 151 158 156 149 156 166 165 148 133 125 136 159 158 148 140 158 130 131 163 65
266 269 265 258 254 252 257 262 263 228 235 208 159 159 159 164 166 168 169 167 161 162 155 149 150 150 153 165 182 168 162 157 152 154 156 164 145 137 144 151 174 157 130 132 152 152 161 176 163
259 255 256 253 246 240 244 254 185 207 226 212 170 162 156 157 170 170 164 159 159 159 157 158 164 158 160 165 182 182 162 148 149 148 151 160 143 146 155 158 159 147 148 155 140 197 187 145 140
252 247 252 249 237 242 248 263 191 203 220 195 176 170 156 158 172 164 159 159 156 154 158 162 159 159 163 165 174 185 147 144 150 149 154 159 153 154 163 141 130 162 160 162 181 152 138 144 155
255 258 260 253 224 232 251 254 210 211 232 200 178 169 157 162 169 161 158 159 153 156 162 162 164 164 162 163 169 174 163 156 161 155 150 154 159 158 162 142 149 178 158 141 97 99 109 160 230
273 278 266 257 240 240 261 266 249 206 227 217 183 161 155 160 160 156 159 158 156 159 164 167 172 170 166 168 173 176 173 170 166 160 152 158 160 155 169 138 144 172 144 144 151 148 191 217 203
269 276 276 279 283 276 279 279 271 222 225 212 186 157 158 156 158 156 160 163 164 164 170 175 177 171 170 173 174 176 169 170 166 160 151 158 155 160 170 144 165 166 144 148 156 146 215 232 184
259 266 274 281 281 272 273 268 268 235 225 202 200 166 162 163 166 161 166 169 167 168 176 179 176 172 173 172 172 174 161 164 167 158 159 162 161 167 155 153 166 165 164 161 181 192 205 245 235
256 258 268 274 276 279 280 276 239 207 218 226 202 176 162 162 159 160 163 169 171 170 172 169 171 177 179 178 179 176 175 173 172 164 158 159 164 163 160 160 161 166 167 158 192 190 199 206 247
258 266 269 273 275 278 281 282 260 133 200 234 184 167 154 150 149 154 161 167 171 169 169 169 169 177 181 183 182 181 179 173 163 156 152 159 165 168 167 163 162 171 186 163 171 147 188 223 246
256 261 265 267 272 268 279 277 256 196 193 199 175 157 154 141 141 146 156 161 165 165 168 169 170 174 178 184 186 186 181 174 167 162 161 165 166 174 169 167 168 182 181 158 150 161 194 244 304
235 244 251 247 245 265 294 278 253 200 177 162 149 141 142 141 144 149 155 159 161 166 171 171 170 176 181 184 188 189 183 176 172 168 170 172 172 177 174 173 174 184 167 161 168 183 222 212 242
229 238 249 262 264 264 266 268 265 172 136 132 134 133 137 143 144 147 153 158 162 167 170 171 172 175 179 181 183 184 180 179 178 177 172 181 180 174 163 168 175 184 182 184 177 199 204 201 220
245 239 252 262 272 264 229 229 248 159 137 134 133 137 143 141 141 148 153 159 162 165 168 172 171 173 177 178 176 180 181 185 180 171 175 183 180 166 163 172 178 187 191 187 175 218 217 182 208
245 256 259 264 275 279 261 231 277 162 168 155 151 141 135 139 144 144 149 153 156 160 164 164 165 167 170 170 173 178 182 185 178 177 184 184 186 173 162 176 180 186 186 190 195 215 209 201 220
226 242 258 274 277 283 287 289 329 244 199 189 161 137 136 141 138 140 144 146 144 149 151 153 155 157 164 169 174 173 174 182 180 185 190 183 178 170 175 184 185 189 189 192 199 219 208 209 221
244 238 245 256 270 277 284 270 178 202 182 176 137 124 124 122 123 127 131 134 141 144 149 151 157 162 165 167 170 172 177 180 180 186 186 181 181 181 185 190 190 197 198 194 198 219 221 215 219